Regional Weather Roundup
Issued by NWS Cleveland, OH

Home | Current Version | Previous Version | Graphics & Text | Print | Product List | Glossary On
Versions: 1 2 3 4 5 6 7 8 9 10 11 12 13 14 15 16 17 18 19 20 21 22 23 24 25 26 27 28 29 30 31 32 33 34 35 36 37 38 39 40 41 42 43 44 45 46 47 48 49 50
000
ASUS41 KCLE 270210
RWRCLE
OHIO REGIONAL WEATHER ROUNDUP
NATIONAL WEATHER SERVICE WILMINGTON, OH
1000 PM EDT FRI AUG 26 2016

NOTE: "FAIR" INDICATES FEW OR NO CLOUDS BELOW 12,000 FEET WITH NO
SIGNIFICANT WEATHER AND/OR OBSTRUCTIONS TO VISIBILITY.

OHZ001>008-015>018-024>027-034-035-043-044-270300-
   NORTHWEST OHIO

CITY           SKY/WX    TMP DP  RH WIND       PRES   REMARKS
DEFIANCE       FAIR      75  68  78 CALM      30.15R
FINDLAY        FAIR      76  63  64 CALM      30.15R
TOLEDO EXPRESS FAIR      70  69  97 CALM      30.15R
TOLEDO EXEC    FAIR      74  70  87 SE3       30.16R
LIMA           FAIR      73  70  90 E3        30.16R
$$

OHZ009>014-019>023-028>033-038-089-270300-
   NORTHEAST OHIO

CITY           SKY/WX    TMP DP  RH WIND       PRES   REMARKS
CLE-HOPKINS    FAIR      74  58  57 CALM      30.18R
CLE-LAKEFRONT  FAIR      76  61  59 CALM      30.15R
CUY CO. ARPT   CLEAR     68  63  83 CALM      30.17R
LORAIN-ELYRIA  FAIR      64  58  80 CALM      30.17R
ASHTABULA      FAIR      63  63 100 CALM      30.18R
AKRON-CANTON   FAIR      71  56  58 N6        30.17R
WOOSTER        FAIR      67  61  81 N5        30.19R
MANSFIELD      FAIR      73  59  61 NE6       30.19R
YOUNGSTOWN     FAIR      71  62  73 N5        30.17R
$$

OHZ042-051>053-060>062-070>072-077>081-270300-
  SOUTHWEST OHIO

CITY           SKY/WX    TMP DP  RH WIND       PRES   REMARKS
CINC-COVINGTON FAIR      79  69  71 NE3       30.13R
CINC-LUNKEN    NOT AVBL
HAMILTON       FAIR      73  70  90 CALM      30.14R
DAYTON         TSTM      74  65  73 E6        30.17R
WRIGHT-PAT AFB TSTM      75  75  98 NW2       30.15R
DAYTON GENERAL FAIR      71  67  87 NE8       30.16R
WILMINGTON     FAIR      75  73  93 NE6       30.15R
$$

OHZ036-037-039>041-045>050-054>059-063>069-073>076-082>088-270300-
  CENTRAL AND SOUTHEAST OHIO

CITY           SKY/WX    TMP DP  RH WIND       PRES   REMARKS
COLUMBUS       FAIR      78  68  71 VRB3      30.15R
OSU AIRPORT    FAIR      77  68  73 N3        30.15R
BOLTON FIELD   FAIR      76  70  80 NE3       30.16R
RICKENBACK AFB FAIR      77  70  78 NE5       30.15R
NEWARK         FAIR      74  70  87 CALM      30.15R
MARION         FAIR      72  65  78 NE3       30.17R
LANCASTER      FAIR      74  72  93 CALM      30.15R
ZANESVILLE     FAIR      78  70  76 N3        30.15R
NEW PHILLY     FAIR      73  64  73 CALM      30.16R
$$




USA.gov is the U.S. government's official web portal to all federal, state and local government web resources and services.